CW7959 Weather Reports


Display with metric or nautical units.
time (UTC)temp
F
wind
direction
speed
MPH
gust
MPH
rain 1hr
in
rain 24hr
in
rain mn
in
humidity
%
barometer
mb
20260903053904 55 211 0.0 1.0 0.00 0.20 0.05 93 1006.7
20260903053404 55 211 0.0 3.0 0.00 0.20 0.05 93 1006.7
20260903052903 55 211 1.0 3.0 0.00 0.20 0.05 93 1006.7
20260903052403 55 211 0.0 2.0 0.00 0.20 0.05 93 1006.6
20260903051904 55 211 0.0 2.0 0.00 0.20 0.05 93 1006.7
20260903051403 55 211 2.0 6.0 0.00 0.20 0.05 93 1006.8
20260903050903 55 211 0.0 3.0 0.00 0.20 0.05 93 1006.5
20260903050403 55 211 0.0 3.0 0.00 0.20 0.05 93 1006.5
20260903045904 56 211 0.0 3.0 0.00 0.20 0.05 93 1006.5
20260903045404 56 211 0.0 5.0 0.00 0.20 0.05 93 1006.3
20260903044903 56 211 1.0 5.0 0.00 0.20 0.05 93 1006.4
20260903044405 56 211 0.0 7.0 0.00 0.20 0.05 93 1006.2
20260903043903 56 212 2.0 7.0 0.00 0.20 0.05 93 1006.2
20260903043404 56 209 2.0 6.0 0.00 0.20 0.05 93 1006.3
20260903042403 56 210 1.0 5.0 0.00 0.20 0.05 94 1006.3
20260903041904 56 210 1.0 7.0 0.00 0.20 0.05 94 1006.3
20260903041404 56 199 3.0 8.0 0.00 0.20 0.05 95 1006.5
20260903040903 56 192 1.0 7.0 0.00 0.20 0.05 95 1006.3
20260903040404 56 191 2.0 10.0 0.00 0.20 0.05 95 1006.3
20260903035904 56 226 3.0 7.0 0.00 0.20 0.05 95 1006.4
20260903034904 57 228 2.0 5.0 0.00 0.20 0.05 95 1006.3
20260903034405 57 228 1.0 8.0 0.00 0.20 0.05 95 1006.2
20260903033904 57 234 2.0 5.0 0.00 0.20 0.05 96 1006.0
20260903033404 57 229 3.0 8.0 0.00 0.20 0.05 96 1006.0
20260903032904 57 207 2.0 13.0 0.00 0.20 0.05 96 1005.8
20260903032404 58 217 7.0 12.0 0.00 0.20 0.05 96 1005.6
20260903030904 58 214 5.0 12.0 0.00 0.20 0.05 96 1005.4
20260903025904 58 208 5.0 10.0 0.00 0.20 0.05 96 1005.3
20260903025404 58 198 6.0 12.0 0.00 0.20 0.05 96 1005.1
20260903024904 58 211 6.0 10.0 0.00 0.20 0.05 96 1005.1
20260903024404 58 216 3.0 10.0 0.00 0.20 0.05 97 1005.3
20260903023904 58 206 6.0 12.0 0.00 0.20 0.05 97 1005.4
20260903022904 58 209 6.0 14.0 0.01 0.20 0.05 97 1005.4
20260903022403 58 213 5.0 9.0 0.01 0.20 0.05 97 1005.5
20260903021904 58 206 4.0 12.0 0.01 0.20 0.05 97 1005.5
20260903021404 58 205 7.0 17.0 0.01 0.20 0.05 97 1005.3
20260903015904 58 200 3.0 7.0 0.01 0.20 0.05 97 1005.3
20260903014905 58 201 6.0 10.0 0.02 0.20 0.05 97 1005.3
20260903014405 58 215 2.0 8.0 0.02 0.20 0.05 97 1005.3
20260903013905 58 215 1.0 7.0 0.02 0.20 0.05 97 1005.2
20260903013404 58 213 3.0 7.0 0.02 0.20 0.05 97 1005.2
20260903012903 58 214 2.0 8.0 0.01 0.20 0.04 96 1005.2
20260903012404 58 216 1.0 3.0 0.01 0.20 0.04 96 1005.1
20260903011904 58 216 0.0 5.0 0.01 0.20 0.04 96 1005.0
20260903011405 58 216 5.0 9.0 0.01 0.20 0.04 96 1004.9
20260903010905 58 215 4.0 7.0 0.01 0.20 0.04 97 1005.1
20260903010405 58 216 1.0 5.0 0.01 0.20 0.04 96 1005.2
20260903005905 58 216 2.0 6.0 0.01 0.20 0.04 97 1005.1
20260903005405 58 216 2.0 6.0 0.01 0.20 0.04 97 1005.1
20260903004905 58 216 1.0 3.0 0.00 0.19 0.03 97 1005.2
20260903003905 58 217 2.0 6.0 0.00 0.19 0.03 97 1005.1
20260903003405 58 217 3.0 6.0 0.00 0.19 0.03 97 1005.2
20260903002904 58 217 4.0 8.0 0.01 0.19 0.03 96 1005.3
20260903002405 58 217 4.0 10.0 0.01 0.19 0.03 96 1005.1
20260903001904 57 218 1.0 3.0 0.01 0.19 0.03 96 1004.9
20260903001404 57 218 0.0 3.0 0.02 0.19 0.03 96 1005.0
20260903000906 57 218 1.0 3.0 0.02 0.19 0.03 96 1005.1
20260903000405 57 218 0.0 1.0 0.03 0.19 0.03 96 1004.9
20260902235904 57 218 0.0 0.0 0.03 0.19 0.03 96 1004.9
20260902234905 57 218 0.0 1.0 0.04 0.19 0.03 96 1004.7
20260902234405 57 218 0.0 1.0 0.05 0.19 0.03 96 1004.7
20260902233905 57 218 0.0 1.0 0.05 0.19 0.03 96 1004.7
20260902233405 56 218 0.0 0.0 0.06 0.19 0.03 96 1004.7
20260902232906 56 218 0.0 0.0 0.07 0.18 0.02 96 1004.6
20260902232404 56 218 1.0 3.0 0.08 0.18 0.02 96 1004.5
20260902231905 56 218 0.0 3.0 0.09 0.18 0.02 96 1004.5
20260902231405 56 218 1.0 3.0 0.09 0.17 0.02 95 1004.4
20260902230904 56 218 0.0 1.0 0.08 0.17 0.01 95 1004.4
20260902225904 56 218 2.0 3.0 0.07 0.16 0.16 95 1004.4
20260902225405 56 218 1.0 5.0 0.06 0.15 0.15 95 1004.3
20260902224906 56 218 2.0 7.0 0.07 0.15 0.15 95 1004.2
20260902224405 56 218 2.0 5.0 0.07 0.14 0.14 95 1004.3
20260902223905 56 218 1.0 3.0 0.08 0.14 0.14 95 1004.3
20260902223405 56 218 1.0 6.0 0.07 0.13 0.13 95 1004.3
20260902222404 56 218 0.0 0.0 0.05 0.10 0.10 95 1004.3
20260902221904 56 218 0.0 0.0 0.06 0.09 0.09 94 1004.4
20260902221406 56 218 0.0 0.0 0.06 0.09 0.09 94 1004.4
20260902220905 56 218 0.0 0.0 0.06 0.09 0.09 94 1004.4
20260902220405 56 218 0.0 3.0 0.06 0.09 0.09 94 1004.4
20260902215905 56 218 2.0 6.0 0.07 0.09 0.09 94 1004.4
20260902215405 57 218 0.0 0.0 0.08 0.09 0.09 94 1004.3
20260902214905 57 218 1.0 3.0 0.07 0.08 0.08 94 1004.4
20260902214405 57 218 0.0 0.0 0.06 0.07 0.07 94 1004.6
20260902213905 57 218 0.0 0.0 0.06 0.06 0.06 94 1004.8
20260902213405 57 218 0.0 0.0 0.06 0.06 0.06 93 1004.8
20260902212905 57 218 0.0 0.0 0.05 0.06 0.06 93 1004.8
20260902212405 57 218 0.0 0.0 0.06 0.06 0.06 93 1004.8
20260902211405 57 218 0.0 0.0 0.03 0.03 0.03 93 1005.0
20260902210905 57 218 0.0 0.0 0.03 0.03 0.03 93 1005.0
20260902210405 57 218 0.0 0.0 0.02 0.02 0.02 93 1005.1
20260902205906 57 218 0.0 0.0 0.02 0.02 0.02 93 1005.2
20260902204905 57 218 0.0 1.0 0.01 0.01 0.01 92 1005.4
20260902204405 57 218 0.0 3.0 0.01 0.01 0.01 92 1005.3
20260902203905 57 218 2.0 3.0 0.01 0.01 0.01 92 1005.5
20260902203405 57 218 1.0 3.0 0.01 0.01 0.01 92 1005.7
20260902202905 57 218 1.0 3.0 0.01 0.01 0.01 91 1005.7
20260902202405 58 218 1.0 3.0 0.00 0.00 0.00 91 1005.8
20260902201405 58 218 2.0 5.0 0.00 0.00 0.00 90 1005.8
20260902200405 58 218 2.0 5.0 0.00 0.00 0.00 90 1005.7
20260902195904 58 218 2.0 5.0 0.00 0.00 0.00 89 1005.7
20260902195404 58 226 5.0 9.0 0.00 0.00 0.00 89 1005.8
20260902194904 59 245 3.0 6.0 0.00 0.00 0.00 89 1005.8
20260902194404 59 245 3.0 6.0 0.00 0.00 0.00 89 1005.8
20260902193904 59 246 0.0 0.0 0.00 0.00 0.00 89 1005.9
20260902193404 59 246 0.0 2.0 0.00 0.00 0.00 89 1005.9
20260902192904 59 246 0.0 3.0 0.00 0.00 0.00 89 1005.9
20260902191904 59 246 0.0 1.0 0.00 0.00 0.00 89 1006.0
20260902191404 59 246 1.0 3.0 0.00 0.00 0.00 89 1005.8
20260902190904 59 246 2.0 3.0 0.00 0.00 0.00 89 1006.0
20260902185904 59 256 2.0 6.0 0.00 0.00 0.00 89 1006.2
20260902185405 59 295 0.0 2.0 0.00 0.00 0.00 89 1006.0
20260902184904 59 295 1.0 3.0 0.00 0.00 0.00 89 1006.2
20260902184405 59 295 1.0 3.0 0.00 0.00 0.00 90 1006.3
20260902183904 59 296 1.0 3.0 0.00 0.00 0.00 90 1006.3
20260902183404 59 296 0.0 5.0 0.00 0.00 0.00 91 1006.3
20260902182903 59 296 0.0 3.0 0.00 0.00 0.00 91 1006.3
20260902182404 59 296 0.0 0.0 0.00 0.00 0.00 91 1006.3
20260902181904 59 296 0.0 5.0 0.00 0.00 0.00 91 1006.4
20260902181404 59 355 0.0 0.0 0.00 0.00 0.00 91 1006.3
20260902180904 59 355 1.0 3.0 0.00 0.00 0.00 91 1006.3
20260902180404 59 355 0.0 0.0 0.00 0.00 0.00 91 1006.4
20260902175904 59 355 0.0 0.0 0.00 0.00 0.00 91 1006.2
20260902175404 59 355 0.0 0.0 0.00 0.00 0.00 91 1006.3
20260902174904 59 355 0.0 0.0 0.00 0.00 0.00 91 1006.3
20260902173904 59 355 0.0 3.0 0.00 0.00 0.00 90 1006.5
20260902173405 59 355 0.0 3.0 0.00 0.00 0.00 89 1006.4
20260902172904 59 355 0.0 2.0 0.00 0.00 0.00 89 1006.5
20260902172404 60 355 0.0 2.0 0.00 0.00 0.00 89 1006.5
20260902171904 60 355 0.0 0.0 0.00 0.00 0.00 89 1006.6
20260902171404 60 355 0.0 0.0 0.00 0.00 0.00 88 1006.8
20260902170404 60 355 0.0 0.0 0.00 0.00 0.00 88 1007.0
20260902165904 60 355 0.0 1.0 0.00 0.00 0.00 86 1007.1
20260902165404 60 355 0.0 0.0 0.00 0.00 0.00 88 1007.2
20260902164904 60 355 0.0 0.0 0.00 0.00 0.00 88 1007.2
20260902164404 60 355 0.0 0.0 0.00 0.00 0.00 86 1007.3
20260902163905 60 355 0.0 0.0 0.00 0.00 0.00 86 1007.4
20260902163404 60 355 0.0 0.0 0.00 0.00 0.00 87 1007.6
20260902162906 60 355 0.0 1.0 0.00 0.00 0.00 86 1007.7
20260902162405 60 355 0.0 3.0 0.00 0.00 0.00 85 1007.7
20260902161905 60 355 0.0 1.0 0.00 0.00 0.00 87 1007.8
20260902161405 60 355 0.0 0.0 0.00 0.00 0.00 86 1007.9
20260902160406 59 355 0.0 0.0 0.00 0.00 0.00 88 1007.9
20260902155904 59 355 0.0 0.0 0.00 0.00 0.00 86 1008.0
20260902155405 59 355 2.0 3.0 0.00 0.00 0.00 85 1008.2
20260902154905 60 355 1.0 3.0 0.00 0.00 0.00 85 1008.3
20260902154405 60 355 0.0 3.0 0.00 0.00 0.00 86 1008.4
20260902153405 59 355 0.0 1.0 0.00 0.00 0.00 87 1008.5
20260902152905 58 355 1.0 3.0 0.00 0.00 0.00 86 1008.6
20260902152405 58 355 0.0 3.0 0.00 0.00 0.00 86 1008.7
20260902151404 59 355 0.0 1.0 0.00 0.00 0.00 86 1008.8
20260902150404 60 355 1.0 3.0 0.00 0.00 0.00 84 1009.0
20260902145904 60 355 2.0 3.0 0.00 0.00 0.00 83 1009.0
20260902145405 60 355 2.0 5.0 0.00 0.00 0.00 83 1009.0
20260902144905 60 355 1.0 3.0 0.00 0.00 0.00 83 1009.4
20260902144405 60 355 1.0 3.0 0.00 0.00 0.00 85 1009.6
20260902143905 59 355 3.0 6.0 0.00 0.00 0.00 83 1009.6
20260902143405 59 355 3.0 8.0 0.00 0.00 0.00 83 1009.8
20260902142905 60 356 2.0 6.0 0.00 0.00 0.00 85 1009.8
20260902142405 60 355 3.0 6.0 0.00 0.00 0.00 84 1009.8
20260902141906 60 355 0.0 5.0 0.00 0.00 0.00 86 1009.8
20260902141405 59 355 0.0 5.0 0.00 0.00 0.00 87 1009.8
20260902140905 59 355 1.0 3.0 0.00 0.00 0.00 86 1010.0
20260902135904 58 355 2.0 8.0 0.00 0.00 0.00 86 1010.1
20260902135404 58 11 1.0 5.0 0.00 0.00 0.00 88 1010.4
20260902134905 57 11 3.0 7.0 0.00 0.00 0.00 87 1010.5
20260902134404 57 13 4.0 8.0 0.00 0.00 0.00 87 1010.5
20260902133904 57 358 3.0 7.0 0.00 0.00 0.00 88 1010.5
20260902133404 57 326 1.0 3.0 0.00 0.00 0.00 87 1010.5
20260902132904 57 326 1.0 3.0 0.00 0.00 0.00 89 1010.5
20260902132404 57 326 1.0 3.0 0.00 0.00 0.00 90 1010.5
20260902131904 57 326 1.0 3.0 0.00 0.00 0.00 90 1010.6
20260902131405 56 326 0.0 3.0 0.00 0.00 0.00 90 1010.6
20260902130904 55 326 1.0 3.0 0.00 0.00 0.00 91 1010.8
20260902125904 54 326 0.0 3.0 0.00 0.00 0.00 92 1011.0
20260902124904 54 325 1.0 3.0 0.00 0.00 0.00 92 1011.3
20260902124404 54 325 0.0 1.0 0.00 0.00 0.00 92 1011.2
20260902123905 54 325 1.0 5.0 0.00 0.00 0.00 92 1011.2
20260902123405 54 325 2.0 3.0 0.00 0.00 0.00 92 1011.5
20260902122905 54 325 0.0 0.0 0.00 0.00 0.00 92 1011.5
20260902122405 54 325 0.0 0.0 0.00 0.00 0.00 92 1011.6
20260902121405 54 325 0.0 1.0 0.00 0.00 0.00 92 1011.6
20260902120905 54 325 0.0 3.0 0.00 0.00 0.00 92 1011.7
20260902120404 54 325 0.0 2.0 0.00 0.00 0.00 91 1011.7
20260902115905 54 325 0.0 0.0 0.00 0.00 0.00 91 1011.9
20260902115405 54 325 0.0 1.0 0.00 0.00 0.00 90 1012.0
20260902114405 54 325 0.0 0.0 0.00 0.00 0.00 90 1012.1
20260902113904 54 325 2.0 3.0 0.00 0.00 0.00 89 1012.1
20260902113404 54 325 1.0 3.0 0.00 0.00 0.00 89 1012.1
20260902112904 55 325 0.0 2.0 0.00 0.00 0.00 89 1012.1
20260902112404 55 325 0.0 5.0 0.00 0.00 0.00 88 1012.1
20260902111905 55 325 3.0 6.0 0.00 0.00 0.00 88 1012.2
20260902111404 55 294 0.0 3.0 0.00 0.00 0.00 88 1012.2
20260902110904 55 294 0.0 3.0 0.00 0.00 0.00 89 1012.1
20260902110404 55 294 1.0 5.0 0.00 0.00 0.00 89 1012.1
20260902105904 55 280 0.0 1.0 0.00 0.00 0.00 90 1012.3
20260902105404 54 280 0.0 1.0 0.00 0.00 0.00 91 1012.2
20260902104904 54 280 0.0 0.0 0.00 0.00 0.00 91 1012.0
20260902104404 54 280 1.0 5.0 0.00 0.00 0.00 91 1012.2
20260902103404 54 279 2.0 5.0 0.00 0.00 0.00 93 1012.3
20260902102904 54 252 0.0 1.0 0.00 0.00 0.00 93 1012.3
20260902102405 54 252 0.0 0.0 0.00 0.00 0.00 94 1012.4
20260902101904 54 252 0.0 0.0 0.00 0.00 0.00 94 1012.5
20260902100904 53 252 1.0 3.0 0.00 0.00 0.00 95 1012.3
20260902100404 53 252 0.0 3.0 0.00 0.02 0.00 95 1012.3
20260902095905 53 252 1.0 3.0 0.00 0.07 0.00 95 1012.4
20260902095404 53 252 0.0 2.0 0.00 0.07 0.00 96 1012.5
20260902094905 53 252 0.0 0.0 0.00 0.07 0.00 95 1012.5
20260902094404 52 252 0.0 0.0 0.00 0.07 0.00 96 1012.5
20260902093905 52 252 0.0 0.0 0.00 0.07 0.00 96 1012.6
20260902093405 52 252 0.0 3.0 0.00 0.07 0.00 96 1012.5
20260902092905 52 252 0.0 5.0 0.00 0.08 0.00 96 1012.5
20260902091904 52 207 0.0 0.0 0.00 0.09 0.00 96 1012.5
20260902091404 52 207 0.0 0.0 0.00 0.09 0.00 97 1012.5
20260902090905 52 207 0.0 0.0 0.00 0.10 0.00 97 1012.6
20260902085404 52 207 0.0 3.0 0.00 0.13 0.00 97 1012.6
20260902084904 52 207 0.0 1.0 0.00 0.14 0.00 97 1012.6
20260902084405 51 207 2.0 3.0 0.00 0.15 0.00 97 1012.6
20260902083904 51 207 0.0 2.0 0.00 0.17 0.00 97 1012.6
20260902083404 51 207 0.0 2.0 0.00 0.17 0.00 97 1012.6
20260902082905 51 207 0.0 0.0 0.00 0.19 0.00 97 1012.7
20260902082404 51 207 0.0 0.0 0.00 0.20 0.00 97 1012.7
20260902081904 50 207 0.0 0.0 0.00 0.23 0.00 97 1012.7
20260902081405 50 207 0.0 0.0 0.00 0.24 0.00 97 1012.7
20260902080904 50 207 0.0 0.0 0.00 0.27 0.00 97 1012.7
20260902074905 49 207 0.0 0.0 0.00 0.31 0.00 97 1012.7
20260902074405 48 207 0.0 0.0 0.00 0.31 0.00 96 1012.7
20260902073905 48 207 0.0 0.0 0.00 0.33 0.00 96 1012.8
20260902073405 48 207 0.0 0.0 0.00 0.34 0.00 97 1012.8
20260902072904 48 207 0.0 0.0 0.00 0.34 0.00 96 1012.9
20260902072404 48 207 0.0 0.0 0.00 0.34 0.00 96 1012.8
20260902071405 47 207 0.0 0.0 0.00 0.35 0.00 96 1012.7
20260902070904 47 207 0.0 2.0 0.00 0.35 0.00 96 1012.7
20260902070404 47 207 0.0 0.0 0.00 0.35 0.00 96 1012.8
20260902065904 46 207 0.0 0.0 0.00 0.35 0.00 96 1013.0
20260902065404 46 207 0.0 0.0 0.00 0.35 0.00 96 1013.1
20260902064405 46 207 0.0 0.0 0.00 0.35 0.00 96 1013.2
20260902063905 46 215 0.0 0.0 0.00 0.35 0.00 96 1013.2
20260902063404 45 215 0.0 0.0 0.00 0.35 0.00 96 1013.1
20260902062405 45 215 0.0 0.0 0.00 0.35 0.00 96 1013.0
20260902060405 45 215 0.0 0.0 0.00 0.35 0.00 96 1013.0
20260902055904 45 215 0.0 0.0 0.00 0.35 0.00 95 1013.0
20260902055405 45 215 0.0 0.0 0.00 0.35 0.00 95 1013.0
20260902054905 45 215 0.0 0.0 0.00 0.35 0.00 95 1013.0